Regional Weather Roundup
Issued by NWS

Home | Current Version | Previous Version | Graphics & Text | Print | Product List | Glossary Off
Versions: 1 2 3 4 5 6 7 8 9 10 11 12 13 14 15 16 17 18 19 20 21 22 23 24 25 26 27 28 29 30 31 32 33 34 35 36 37 38 39 40 41 42 43 44 45 46 47 48 49 50

000
ASUS43 KMKX 281121
RWRWI

WISCONSIN REGIONAL WEATHER ROUNDUP
NATIONAL WEATHER SERVICE MILWAUKEE/SULLIVAN WI
600 AM CDT FRI JUL 28 2017

NOTE: "FAIR" INDICATES FEW OR NO CLOUDS BELOW 12,000 FEET WITH NO
SIGNIFICANT WEATHER AND/OR OBSTRUCTIONS TO VISIBILITY.

WIZ001-002-006>008-014>016-023>028-281200-
NORTHWEST WISCONSIN

CITY           SKY/WX    TMP DP  RH WIND       PRES   REMARKS
SUPERIOR ARPT  NOT AVBL
ASHLAND        FOG       51  50  96 CALM      30.12S VSB 1/4
HAYWARD        PTCLDY    51  49  92 CALM      30.13R
SIREN          CLEAR     54  53  95 CALM      30.11R FOG
CUMBERLAND     CLEAR     57  55  94 CALM      30.11R
RICE LAKE      CLEAR     56  55  95 CALM      30.12R FOG
CHETEK         CLEAR     60  57  91 E3        30.10S
LADYSMITH      CLEAR     56  54  92 CALM      30.13S
EAU CLAIRE     CLEAR     60  59  96 NE5       30.08R
MENOMONIE      CLEAR     60  58  95 CALM      30.09R
NEW RICHMOND   CLEAR     56  56  98 CALM      30.10R
OSCEOLA        CLEAR     56  56 100 CALM      30.12R
$$

WIZ003>005-009-010-017-018-281200-
NORTH CENTRAL WISCONSIN

CITY           SKY/WX    TMP DP  RH WIND       PRES   REMARKS
MANITOWISH WTR PTCLDY    46  46 100 CALM      30.14R
ARBOR VITAE    CLEAR     49  48  96 CALM      30.12S
WOODRUFF       CLEAR     49  48  96 CALM      30.12S
RHINELANDER    CLEAR     49  49 100 CALM      30.13S
EAGLE RIVER    FOG       46  46 100 CALM      30.13R VSB 1/4
LAND O LAKES   CLEAR     44  44 100 CALM      30.15S FOG
PHILLIPS       CLEAR     49  49 100 CALM      30.13R FOG
TOMAHAWK         N/A     44  43  97 CALM      30.13S FOG
MEDFORD        CLEAR     53  52  97 NE3       30.11R
MERRILL        CLEAR     48  48 100 CALM      30.12R
$$

WIZ029-030-035-036-043>047-281200-
CENTRAL WISCONSIN

CITY           SKY/WX    TMP DP  RH WIND       PRES   REMARKS
WAUSAU         CLEAR     56  54  93 N3        30.09R
MOSINEE        CLEAR     57  55  94 N5        30.11R
MARSHFIELD     CLEAR     60  57  89 NE5       30.09R
STEVENS POINT  CLEAR     53  53 100 N3        30.10R
WAUPACA        CLEAR     58  56  92 N3        30.08S
WAUTOMA        CLEAR     59  55  87 CALM      30.08R
WISC RAPIDS    CLEAR     61  57  87 NE7       30.09R
CAMP DOUGLAS   CLEAR     57  57 100 CALM      30.07S
$$

WIZ011>013-019>022-031-037>040-048>050-281200-
NORTHEAST WISCONSIN

CITY           SKY/WX    TMP DP  RH WIND       PRES   REMARKS
ANTIGO         CLEAR     49  49 100 CALM      30.12R
SHAWANO        CLEAR     60  54  79 N5        30.08S
OCONTO         CLEAR     55  52  89 N3        30.06S
STURGEON BAY     N/A     61  58  90 NE8       30.06R
GREEN BAY      CLEAR     57  55  93 N7        30.06R
MANITOWOC      CLEAR     58  54  86 N3        30.04S
APPLETON       PTCLDY    55  48  76 N6        30.06R
CLINTONVILLE   CLEAR    N/A N/A N/A N5        30.08R
OSHKOSH        CLEAR     61  54  77 N8        30.06R
$$

WIZ032>034-041-042-053>061-281200-
SOUTHWEST WISCONSIN

CITY           SKY/WX    TMP DP  RH WIND       PRES   REMARKS
LA CROSSE      CLEAR     66  63  90 CALM      30.05R
SPARTA         CLEAR     54  54 100 CALM      30.08R
VIROQUA        CLEAR     61  61  99 E5        30.07S
BOSCOBEL       FOG       64  63  96 CALM      30.05R VSB 1/4
PRAIRIE DU CHI FOG       62  61  96 E3        30.04S VSB 3/4
PLATTEVILLE    PTCLDY    61  59  95 N5        30.04S
$$

WIZ056-057-062-063-064-067-068-281200-
SOUTH CENTRAL WISCONSIN

CITY           SKY/WX    TMP DP  RH WIND       PRES   REMARKS
REEDSBURG      CLEAR     62  60  94 CALM      30.06S
BARABOO/DELLS  CLEAR     61  56  84 NE5       30.07R
LONE ROCK      MOCLDY    64  62  93 CALM      30.05R
MINERAL POINT  CLOUDY    63  61  94 NE7       30.05R
MADISON        PTCLDY    60  56  86 N8        30.04R
MIDDLETON      PTCLDY    61  59  92 CALM      30.05S
WATERTOWN      CLOUDY    62  60  94 N8        30.03R
MONROE         CLEAR     59  54  82 N7        30.03R
JANESVILLE     CLEAR     63  55  77 N7        30.01R
$$

WIZ051-052-058>065-066-070>072-281200-
SOUTHEAST WISCONSIN

CITY           SKY/WX    TMP DP  RH WIND       PRES   REMARKS
MILWAUKEE      MOCLDY    67  63  87 N16G26    30.01R
WAUKESHA       CLEAR     59  57  94 N7        30.04R
MILWAUKEE/TIMM CLEAR     63  55  77 N10       30.03R
RACINE         MOCLDY    67  65  93 N15       30.02R
KENOSHA        CLEAR     66  61  84 N9        30.00R
FOND DU LAC    CLEAR     63  53  70 NE7       30.05S
SHEBOYGAN      CLOUDY    60  57  89 N6        30.04R
WEST BEND      CLOUDY    61  59  94 NE5       30.03S
JUNEAU         CLOUDY    61  55  81 N3        30.05S
$$

LSZ147-162-281200-
LAKE SUPERIOR

STATION/POSITION TIME  TEMP    WIND        PRES    WAVE
                       AIR SEA DIR/SP/G            HT/PER
                 (UTC) (F)     (DEG/KT/KT) (MB)    (FT/S)
W MID LAKE BUOY  1050   59 54   90/  4/  6 1019.6R   0
DEVILS ISLAND    1100   62      CALM  /  1 1019.9R
SAXON HARBOR     1030   57     190/  4/  6 1019.3R
$$

LMZ867-665-643>646-281200-
LAKE MICHIGAN

STATION/POSITION TIME  TEMP    WIND        PRES    WAVE
                       AIR SEA DIR/SP/G            HT/PER
                 (UTC) (F)     (DEG/KT/KT) (MB)    (FT/S)
CHAMBERS ISLAND  1040   64     360/ 12/ 14 1017.3R
S GREEN BAY BUOY 1100   64 71   10/ 16/ 19 1017.3
N MID LAKE BUOY  1050   64 66   40/ 12/ 14 1017.9R   2/ 4
NORTHPORT PIER   1040   63      20/  6/  8 1017.6R
KEWAUNEE LAKESHO 1054   60     350/  4/  7 1016.3F
SHEBOYGAN LAKESH 1100   65      10/ 15/ 17 1016.5S
PORT WASHINGTON  1040   63     350/  5/  8 1017.6R
MILWAUKEE LAKESH 1100   66      10/ 14/ 16   N/A
S MID LAKE BUOY  1050   70 72   30/ 12/ 16 1014.7R   3/ 5
KENOSHA   LAKESH 1100   69      20/ 19/ 23 1015.2
$$

TC  - TEMPERATURE IN CELSIUS
VSB - VISIBILITY IN STATUTE MILES
WCI - WIND CHILL INDEX
HX  - HEAT INDEX




USA.gov is the U.S. government's official web portal to all federal, state and local government web resources and services.